Saint Cloud, MN

8:07 AM CDT on September 26, 2016 (GMT -0500)
Saint Cloud Regional

Weather History for KSTC - January, 2012

Change the Weather History Date:

Tuesday, January 10, 2012

  Actual Average Record
Temperature  
Mean Temperature 37 °F 11 °F  
Max Temperature 52 °F 21 °F 52 °F (2012)
Min Temperature 21 °F 2 °F -30 °F (1982)
Degree Days  
Heating Degree Days 28 54  
Month to date heating degree days 363 533  
Since 1 July heating degree days 3190 3980  
Cooling Degree Days 0 0  
Month to date cooling degree days 0 0  
Year to date cooling degree days 0 0  
Moisture  
Dew Point 26 °F    
Average Humidity 65    
Maximum Humidity 88    
Minimum Humidity 41    
Precipitation  
Precipitation 0.00 in 0.02 in 0.60 in (1975)
Month to date precipitation T 0.24  
Year to date precipitation T 0.24  
Snow  
Snow 0.00 in 0.30 in 9.00 in (1976)
Month to date snowfall T 3.0  
Since 1 July snowfall 6.7 21.6  
Snow Depth 0.00 in    
Sea Level Pressure  
Sea Level Pressure 29.81 in    
Wind  
Wind Speed 4 mph (SSW)    
Max Wind Speed 12 mph    
Max Gust Speed 14 mph    
Visibility 10 miles    
Events      
T = Trace of Precipitation, MM = Missing Value Source: NWS Daily Summary

Daily Weather History Graph

Daily Weather History Graph

Search for Another Location

Airport or City:

Trip Planner

Search our weather history database for the weather conditions in past years. The results will help you decide how hot, cold, wet, or windy it might be!

Date:

Astronomy

Jan. 10, 2012 Rise Set
Actual Time 7:55 AM CST 4:52 PM CST
Civil Twilight 7:21 AM CST 5:25 PM CST
Nautical Twilight 6:44 AM CST 6:03 PM CST
Astronomical Twilight 6:08 AM CST 6:38 PM CST
Moon 6:52 PM CST (1/10) 8:27 AM CST (1/10)
Length of Visible Light 10h 04m
Length of Day
8h 57m
Full, 98% of the Moon is Illuminated
Jan 10
Full
Jan 16
Last Quarter
Jan 23
New
Jan 30
First Quarter
Feb 7
Full

Hourly Weather History & Observations

Time (CST) Temp. Windchill Dew Point Humidity Pressure Visibility Wind Dir Wind Speed Gust Speed Precip Events Conditions
12:53 AM 25.0 °F - 21.9 °F 88% 29.99 in 10.0 mi Calm Calm - N/A   Clear
1:53 AM 23.0 °F - 19.9 °F 88% 29.99 in 10.0 mi Calm Calm - N/A   Clear
2:53 AM 24.1 °F - 21.0 °F 88% 29.98 in 10.0 mi Calm Calm - N/A   Clear
3:53 AM 27.0 °F 18.7 °F 23.0 °F 85% 29.92 in 10.0 mi SE 8.1 mph - N/A   Clear
4:53 AM 26.1 °F 21.9 °F 23.0 °F 88% 29.90 in 10.0 mi South 3.5 mph - N/A   Clear
5:53 AM 25.0 °F 18.1 °F 21.0 °F 85% 29.89 in 10.0 mi South 5.8 mph - N/A   Clear
6:53 AM 26.1 °F 20.5 °F 23.0 °F 88% 29.89 in 10.0 mi SSE 4.6 mph - N/A   Clear
7:53 AM 25.0 °F 18.1 °F 21.0 °F 85% 29.88 in 10.0 mi SSE 5.8 mph - N/A   Clear
8:53 AM 28.9 °F 21.9 °F 25.0 °F 85% 29.86 in 10.0 mi South 6.9 mph - N/A   Clear
9:53 AM 34.0 °F 28.8 °F 28.9 °F 82% 29.85 in 10.0 mi South 5.8 mph - N/A   Clear
10:53 AM 43.0 °F 37.7 °F 30.0 °F 60% 29.85 in 10.0 mi WSW 9.2 mph - N/A   Clear
11:53 AM 46.4 °F 41.9 °F 28.4 °F 50% 29.76 in 10.0 mi West 9.2 mph - N/A   Clear
12:53 PM 48.0 °F - 28.9 °F 48% 29.78 in 10.0 mi SW 8.1 mph - N/A   Clear
1:53 PM 51.1 °F - 28.9 °F 43% 29.76 in 10.0 mi SW 6.9 mph - N/A   Clear
2:53 PM 51.1 °F - 30.0 °F 44% 29.74 in 10.0 mi SSW 8.1 mph - N/A   Clear
3:53 PM 51.1 °F - 28.9 °F 43% 29.73 in 10.0 mi SW 4.6 mph - N/A   Clear
4:53 PM 42.1 °F 37.1 °F 28.9 °F 60% 29.75 in 10.0 mi South 8.1 mph - N/A   Clear
5:53 PM 41.0 °F 38.0 °F 28.0 °F 60% 29.74 in 10.0 mi SSW 4.6 mph - N/A   Clear
6:53 PM 37.0 °F 34.5 °F 28.0 °F 70% 29.73 in 10.0 mi SW 3.5 mph - N/A   Clear
7:53 PM 32.0 °F - 26.1 °F 79% 29.71 in 10.0 mi Calm Calm - N/A   Clear
8:53 PM 30.0 °F - 25.0 °F 82% 29.68 in 10.0 mi Calm Calm - N/A   Clear
9:53 PM 32.0 °F - 27.0 °F 82% 29.68 in 10.0 mi Calm Calm - N/A   Clear
10:53 PM 30.9 °F - 26.1 °F 82% 29.68 in 10.0 mi Calm Calm - N/A   Clear
11:53 PM 30.0 °F - 26.1 °F 85% 29.67 in 10.0 mi Calm Calm - N/A   Clear